Reflectivity
-20 -20 -20 -20 -20 -20 -20 -20 -20 -20 -20 -20 -20 -20 -20 -20 -20 -20 -20 -20 -20 -20 -20 -20 -20 -20 -20 -20 -20 -20 -20 -20 -20 -20 -20 -20 -20 -20 -20 -20 -20 -20 -20 -20 -20
-20 -20 -20 -20 -20 -20 -20 -20 -20 -20 -20 -20 -20 -20 -20 -20 -20 -20 -20 -20 -20 -20 -20 -20 -20 -20 -20 -20 -20 -20 -20 -20 -20 -20 -20 -20 -20 -20 -20 -20 -20 -20 -20 -20 -20
-20 -20 -20 -20 -20 -20 -20 -20 -20 -20 -20 -20 -20 -20 -20 -20 -20 -20 -20 -20 -20 -20 -20 -20 -20 -20 -20 -20 -20 -20 -20 -20 -20 -20 -20 -20 -20 -20 -20 -20 -20 -20 -20 -20 -20
-20 -20 -20 -20 -20 -20 -20 -20 -20 -20 -20 -20 -20 -20 -20 -20 -20 -20 -20 -20 -20 -20 -20 -20 -20 -20 -20 -20 -20 -20 -20 -20 -20 -20 -20 -20 -20 -20 -20 -20 -20 -20 -20 -20 -20
-20 -20 -20 -20 -20 -20 -20 -20 -20 -20 -20 -20 -20 -20 -20 -20 -20 -20 -20 -20 -20 -20 -20 -20 -20 -20 -20 -20 -20 -20 -20 -20 -20 -20 -20 -20 -20 -20 -20 -20 -20 -20 -20 -20 -20
-20 -20 -20 -20 -20 -20 -20 -20 -20 -20 -20 -20 -20 -20 -20 -20 -20 -20 -20 -20 -20 -20 -20 -20 -20 -20 -20 -20 -20 -20 -20 -20 -20 -20 -20 -20 -20 -20 -20 -20 -20 -20 -20 -20 -20
-20 -20 -20 -20 -20 -20 -20 -20 -20 -20 -20 -20 -20 -20 -20 -20 -20 -20 -20 -20 -20 -20 -20 -20 -20 -20 -20 -20 -20 -20 -20 -20 -20 -20 -20 -20 -20 -20 -20 -20 -20 -20 -20 -20 -20
-20 -20 -20 -20 -20 -20 -20 -20 -20 -20 -20 -20 -20 -20 -20 -20 -20 -20 -20 -20 -20 -20 -20 -20 -20 -20 -20 -20 -20 -20 -20 -20 -20 -20 -20 -20 -20 -20 -20 -20 -20 -20 -20 -20 -20
-20 -20 -20 -20 -20 -20 -20 -20 -20 -20 -20 -20 -20 -20 -20 -20 -20 -20 -20 -20 -20 -20 -20 -20 -20 -20 -20 -20 -20 -20 -20 -20 -20 -20 -20 -20 -20 -20 -20 -20 -20 -20 -20 -20 -20
-20 -20 -20 -20 -20 -20 -20 -20 -20 -20 -20 -20 -20 -20 -20 -20 -20 -20 -20 -20 -20 -20 -20 -20 -20 -20 -20 -20 -20 -20 -20 -20 -20 -20 -20 -20 -20 -20 -20 -20 -20 -20 -20 -20 -20
-20 -20 -20 -20 -20 -20 -20 -20 -20 -20 -20 -20 -20 -20 -20 -20 -20 -20 -20 -20 -20 -20 -20 -20 -20 -20 -20 -20 -20 -20 -20 -20 -20 -20 -20 -20 -20 -20 -20 -20 -20 -20 -20 -20 -20
-20 -20 -20 -20 -20 -20 -20 -20 -20 -20 -20 -20 -20 -20 -20 -20 -20 -20 -20 -20 -20 -20 -20 -20 -20 -20 -20 -20 -20 -20 -20 -20 -20 -20 -20 -20 -20 -20 -20 -20 -20 -20 -20 -20 -20
-20 -20 -20 -20 -20 -20 -20 -20 -20 -20 -20 -20 -20 -20 -20 -20 -20 -20 -20 -20 -20 -20 -20 -20 -20 -20 -20 -20 -20 -20 -20 -20 -20 -20 -20 -20 -20 -20 -20 -20 -20 -20 -20 -20 -20
-20 -20 -20 -20 -20 -20 -20 -20 -20 -20 -20 -20 -20 -20 -20 -20 -20 -20 -20 -20 -20 -20 -20 -20 -20 -20 -20 -20 -20 -20 -20 -20 -20 -20 -20 1 -15 -20 -20 -20 -20 -20 -20 -18 -15
-6 -20 -20 -20 -20 -20 -20 -20 -20 -20 -20 -20 -20 -20 -20 -20 -20 -20 -20 -20 -20 -20 -20 -20 -20 -20 -20 -20 -20 -20 -20 -20 -20 -20 5 2 4 -20 -20 -20 -20 -20 -20 -20 3
-20 -20 -20 -20 -20 -20 -20 -20 -20 -20 -20 -20 -20 -20 -20 -20 -20 -20 -20 -20 -20 -20 -20 -20 -20 -20 -20 -20 -20 -20 -20 -20 -20 -20 -20 -20 -5 -20 8 6 -17 -17 8 13 -6
15 5 -20 -20 -20 -20 -20 -20 -20 -20 -20 -20 -20 -20 -20 -20 -20 -20 -20 -20 -20 -20 -20 -20 -20 -20 -20 -20 -20 -20 -20 -20 -20 -20 -17 4 -14 -20 7 14 14 13 14 8 18
-20 -20 -20 -20 -20 -20 -20 -20 -20 -20 -20 -20 -20 -20 -20 -20 -20 -20 -20 -20 -20 -20 -20 -20 -20 -20 -20 -20 -20 -20 -20 -20 -20 -20 15 -10 9 13 15 20 17 18 20 19 14
-20 -20 -20 -20 -20 -20 -20 -20 -20 -20 -20 -20 -20 -20 -20 -20 -20 -20 -20 -20 -20 -20 -20 -20 -20 -20 -20 -20 -20 -20 -20 -20 -20 -20 3 -7 -18 -5 -8 -20 -7 11 17 20 19
-20 -20 -20 -20 -20 -20 -20 -20 -20 -20 -20 -20 -20 -20 -20 -20 -20 -20 -20 -20 -20 -20 -20 -20 -20 -20 -20 -20 -20 -20 -20 -20 -20 -20 -20 -20 -20 -20 -20 -20 -20 -3 13 15 22
-20 -20 -20 -20 -20 -20 -20 -20 -20 -20 -20 -20 -20 -20 -20 -20 -20 -20 -20 -20 -20 -20 -20 -17 -20 -20 -20 -20 -20 -20 -20 -20 -20 -9 -15 -13 -20 -8 -20 -7 -9 2 12 19 22
-20 -20 -20 -20 -20 -20 -20 -20 -20 -20 -20 -20 -20 -20 -20 -20 -20 -20 -20 -20 -20 -20 -20 -20 -12 -20 -20 -20 -20 -20 -20 -20 -20 -20 -20 -9 -14 -20 -20 -20 -20 -6 12 13 20
-20 -20 -20 -20 -20 -20 -20 -20 -20 -20 -20 -20 -20 -20 -20 -20 -20 -20 -20 -20 -20 -20 -20 -20 -20 -20 -20 -20 -20 -20 -20 -20 -20 -9 -16 -20 -20 -20 -20 -20 -20 -20 0 13 17
-20 -20 -20 -18 -20 -20 -20 -20 -20 -20 -20 -20 -20 -20 -20 -20 -20 -20 -20 -20 -20 -20 -20 -20 -20 -20 -20 -20 -20 -20 -20 -20 -16 -20 -20 -20 -20 -20 -20 -20 -20 -20 -19 2 17
-20 -20 -20 -20 -20 -19 -20 -20 -20 -20 -20 -20 -20 -20 -20 -20 -20 -20 -20 -20 -20 -20 -20 -20 -20 -20 -20 -20 -20 -20 -20 -20 -20 -20 -7 -20 -20 -20 -20 -20 -20 -20 -20 -20 -13
-20 -20 -20 -20 -20 -20 -20 -20 -20 -20 -20 -20 -20 -20 -20 -20 -20 -20 -20 -20 -20 -20 -20 -20 -20 -20 -20 -20 -20 -20 -20 -20 -20 -20 -20 -20 -20 -20 -20 -20 -20 -20 -20 -20 -20
-20 -20 -20 -20 -20 -20 -6 -19 -20 -20 -20 -20 -20 -20 -20 -20 -20 -20 -20 -20 -20 -20 -20 -20 -20 -20 -20 -20 -20 -20 -20 -20 -20 -20 -20 -20 -20 -20 -20 -20 -20 -20 -20 -20 -20
Wind_Speed
19 20 19 19 19 18 19 18 14 11 11 9 11 10 10 11 6 10 14 11 14 20 18 10 9 10 3 2 4 4 4 2 4 6 5 7 8 6 5 7 6 7 6 5 4
20 20 20 19 18 18 19 17 13 10 11 10 11 11 10 9 1 13 13 18 20 19 10 9 9 12 5 3 4 4 2 2 2 2 4 3 6 6 6 7 8 9 7 11 12
21 20 20 19 19 19 19 16 12 11 11 11 10 11 10 6 4 5 19 21 22 14 7 5 7 6 4 2 3 4 3 7 2 6 7 8 2 4 6 3 1 9 17 10 7
21 21 20 20 19 19 19 15 12 11 10 11 11 10 11 3 4 5 20 22 18 12 8 6 8 5 5 5 6 4 4 6 5 8 7 6 8 7 5 7 9 10 10 11 4
21 21 21 21 20 19 19 13 11 10 9 10 12 10 4 7 3 6 18 16 6 8 10 7 7 5 4 5 8 2 5 8 10 11 11 8 7 8 9 10 10 11 11 10 9
21 21 21 20 19 19 18 11 10 9 9 12 12 7 4 8 7 8 10 10 7 6 8 8 5 5 2 3 3 5 6 8 8 10 8 11 10 3 4 7 11 13 13 10 10
20 22 23 22 20 19 17 11 9 9 10 11 11 4 8 3 3 7 9 7 6 3 3 4 4 5 5 6 5 7 7 8 8 5 5 5 5 6 9 9 6 8 8 9 8
20 21 23 22 20 19 19 13 10 10 11 11 10 2 3 1 3 8 9 7 8 1 2 2 3 1 1 3 7 3 2 5 7 8 5 3 13 8 9 7 9 9 8 8 8
20 21 23 22 21 20 20 15 9 10 12 12 5 2 4 4 9 8 9 10 8 0 1 2 1 1 5 2 6 7 3 9 10 9 7 6 18 9 12 11 14 13 10 11 14
20 21 22 22 20 20 22 4 6 9 4 2 3 6 7 7 8 8 10 6 4 3 2 1 1 3 5 6 3 7 6 7 7 6 16 15 19 10 9 7 7 11 12 12 13
18 19 21 20 19 20 11 4 7 8 11 5 1 3 4 10 4 12 10 9 6 4 6 1 7 4 5 4 6 7 4 7 13 16 10 6 15 17 12 11 14 14 16 16 17
18 18 20 18 16 14 7 7 2 2 3 4 3 3 2 5 5 15 11 8 7 6 10 8 4 6 7 8 7 6 9 13 11 3 12 11 11 8 9 10 12 13 15 17 18
15 16 19 18 11 4 9 5 3 3 3 1 1 2 5 3 4 9 8 6 5 8 6 2 4 5 7 7 8 6 7 6 10 12 12 5 1 4 9 7 14 15 14 14 17
12 15 18 21 6 4 4 6 4 2 6 8 6 4 5 2 2 3 6 2 7 6 7 2 4 5 7 4 3 8 5 16 18 4 3 4 6 5 12 9 15 15 16 18 18
10 12 16 7 3 3 5 5 2 3 4 4 4 4 5 7 4 9 5 7 4 5 2 6 5 7 5 6 5 11 17 18 14 5 1 2 3 5 9 15 22 19 19 19 17
9 10 13 4 3 1 3 4 3 8 4 4 4 6 6 5 3 6 8 7 3 5 3 6 6 2 6 8 4 8 15 9 3 4 4 4 1 3 10 17 18 20 20 20 18
9 7 6 2 2 2 3 3 6 8 4 5 4 5 4 6 6 7 4 10 5 9 8 8 6 2 4 6 5 12 7 6 9 7 2 4 3 0 9 12 12 17 18 16 16
9 8 3 2 1 2 3 6 8 3 2 2 3 6 2 6 4 7 4 6 8 5 2 5 10 7 8 2 5 5 3 2 4 3 4 5 7 2 6 8 10 13 14 15 17
9 2 0 1 1 3 5 8 7 5 3 5 5 3 2 3 3 6 3 2 1 2 5 5 7 6 5 5 3 7 5 5 4 3 2 1 3 3 10 10 13 15 17 17 16
2 3 2 2 4 3 6 4 4 2 1 0 1 3 3 5 4 5 2 4 2 2 3 1 7 4 8 6 6 4 5 6 4 5 6 2 2 7 20 19 15 16 16 17 15
3 4 3 2 3 6 4 3 3 3 2 1 2 1 2 1 4 1 4 3 1 2 2 0 2 9 3 2 2 5 5 4 0 2 3 4 4 5 10 10 12 12 13 13 13
2 3 3 2 5 2 2 1 2 3 1 1 1 1 1 2 1 1 4 6 3 1 2 2 3 6 7 11 7 3 3 4 3 7 3 3 3 1 5 5 8 10 11 11 9
1 3 2 4 2 1 2 2 1 2 3 3 3 2 1 2 2 3 3 4 6 2 4 2 3 6 11 8 7 4 3 3 4 2 3 1 5 3 4 6 7 9 9 10 11
2 3 4 5 1 3 3 2 2 1 1 2 1 2 1 2 4 2 2 3 6 4 5 1 2 8 7 8 2 6 10 6 3 2 3 3 6 7 8 8 8 8 8 8 9
2 3 3 1 2 3 3 2 2 3 1 3 2 5 5 1 3 3 2 3 3 4 3 5 3 4 9 17 14 16 14 6 5 6 2 4 3 6 6 2 5 4 7 7 9
4 4 1 2 1 4 1 4 4 1 6 4 4 3 7 6 7 6 5 3 5 1 2 3 3 4 6 6 1 8 9 7 5 5 7 6 5 3 2 3 3 5 4 7 7
2 4 4 3 4 5 5 6 5 7 2 5 7 2 4 8 6 4 6 4 6 7 3 2 1 4 7 7 8 5 6 4 2 4 4 4 3 3 3 3 1 3 4 4 4
Wind_Direction
19 15 12 10 8 5 2 359 360 6 12 1 345 350 352 359 341 42 40 350 347 342 338 325 335 336 329 352 354 21 55 259 324 10 309 22 14 15 303 10 326 0 4 121 3
16 13 10 7 5 3 0 359 5 5 5 3 350 349 348 351 311 53 2 353 343 338 339 341 326 337 4 22 10 74 127 212 356 351 331 4 16 336 8 359 323 340 346 7 2
14 11 7 5 2 1 360 360 4 2 354 0 3 358 357 342 60 348 354 354 349 9 329 303 335 348 20 23 32 346 211 322 1 7 16 338 30 336 1 336 102 305 306 323 11
12 9 6 3 1 359 357 357 359 358 358 359 5 1 338 12 65 321 353 354 1 350 353 2 354 25 16 10 0 352 290 328 323 344 347 320 300 307 227 242 259 266 278 301 356
11 8 4 0 357 356 353 354 357 359 356 351 350 338 6 46 29 315 349 351 359 6 3 2 28 19 14 341 341 282 328 326 327 316 298 278 263 255 274 268 274 273 275 276 280
8 5 2 359 356 354 354 353 354 4 349 334 341 356 62 70 274 344 351 345 356 21 2 33 2 323 318 297 344 305 333 297 293 277 270 278 284 202 250 276 282 267 268 264 257
6 3 358 355 354 352 353 352 340 336 334 327 340 351 68 164 346 342 15 340 331 10 20 10 355 43 336 334 319 281 308 315 292 318 247 354 296 254 279 291 300 306 275 281 272
5 2 357 352 349 348 343 342 332 317 314 313 325 23 80 223 2 353 357 328 326 98 48 0 23 313 212 306 334 285 37 356 307 344 310 345 289 284 268 284 289 294 292 282 265
3 0 357 350 346 338 335 317 303 309 306 307 13 114 16 344 359 330 27 324 302 281 177 292 16 53 360 3 359 18 314 313 318 329 301 34 298 296 291 266 275 272 281 285 268
1 357 355 350 343 335 332 288 306 331 325 304 21 47 24 320 306 345 334 335 276 297 288 254 38 47 17 48 311 287 299 275 266 291 305 298 286 302 304 303 358 10 344 335 320
357 352 352 350 342 339 346 19 16 358 32 93 91 70 346 299 324 353 332 337 352 66 18 105 59 33 326 317 281 278 276 280 290 295 308 282 297 310 339 45 9 356 343 332 318
353 348 346 347 337 343 11 67 77 228 65 60 30 84 319 322 345 348 8 43 16 17 5 17 64 320 327 347 338 4 305 298 294 318 332 313 310 85 37 42 15 344 338 328 318
346 345 340 344 328 42 82 62 314 2 120 1 95 39 289 24 15 336 19 344 21 11 354 146 279 2 16 338 344 314 259 271 274 314 286 353 295 33 354 12 355 347 337 329 318
334 344 341 340 45 351 55 335 347 19 80 327 352 355 332 63 68 32 358 32 12 353 337 292 318 11 343 305 6 306 247 297 292 318 256 75 288 39 334 333 353 346 340 334 326
326 343 341 25 264 48 302 329 331 48 39 344 341 300 337 78 298 346 24 24 73 300 31 270 313 342 343 242 313 257 302 292 289 200 259 258 274 301 349 341 343 348 341 338 333
323 344 347 23 49 268 322 348 45 42 286 347 19 357 10 28 20 341 11 9 98 2 327 265 282 168 219 281 291 308 312 327 59 99 51 275 277 350 357 330 336 340 341 340 337
315 332 341 298 292 327 16 38 36 93 344 336 333 348 359 340 358 20 73 34 59 25 359 328 320 317 351 334 327 352 355 352 359 8 227 346 47 204 343 344 338 333 336 338 344
333 321 272 171 1 66 70 56 69 265 284 355 323 320 73 14 358 5 22 25 30 56 34 32 337 8 338 10 274 324 80 110 293 298 303 334 346 167 28 328 334 338 341 349 357
326 0 327 256 150 71 70 55 193 214 254 343 324 45 355 4 47 30 51 89 74 56 112 27 276 320 270 319 24 315 23 209 256 223 296 84 340 234 357 351 359 354 352 359 2
12 9 287 197 125 76 67 160 173 120 94 276 76 48 329 337 39 48 349 286 95 164 141 246 297 253 298 357 354 74 324 20 7 4 331 326 73 317 340 343 354 360 353 353 2
42 16 255 65 73 43 107 185 121 97 86 100 212 300 8 290 128 310 249 282 85 336 131 126 117 290 328 40 262 346 9 359 194 299 327 316 307 1 328 335 346 353 351 355 0
45 352 292 37 45 64 108 122 348 148 133 170 261 235 181 130 116 233 234 202 171 123 132 287 172 279 260 293 289 27 116 69 88 303 282 266 290 349 302 324 355 353 348 356 6
22 268 346 79 94 6 274 86 316 147 197 188 241 202 136 185 30 203 262 162 154 118 156 254 324 323 347 354 8 30 351 49 245 214 251 55 304 127 354 351 1 355 356 6 9
63 347 330 46 148 115 149 237 215 57 194 162 208 80 249 274 192 248 292 190 167 138 130 113 236 173 203 218 135 315 299 309 295 260 279 240 277 325 343 2 354 353 2 17 17
116 251 163 313 347 95 86 204 197 242 231 149 284 208 182 195 347 226 234 347 97 126 75 108 220 189 254 263 266 263 271 269 172 236 233 252 276 308 324 341 309 300 353 21 24
156 150 39 167 159 99 168 230 208 155 150 231 192 221 185 183 189 210 131 200 216 127 97 356 268 348 292 287 119 280 262 258 235 232 252 269 265 268 68 116 355 341 14 14 19
340 343 94 186 169 128 207 195 196 144 228 194 200 193 222 236 219 210 192 200 186 153 168 149 67 16 275 328 319 360 238 201 218 224 191 219 182 292 312 311 304 297 359 7 15